DRAGON CRS-17 (44222 NORAD) Tracking and Keplerian Element Data

This shows tracking and keplerian element data for the satellite.

Feedback or suggestion? Click here.




ElementValue
Catalog44222
NameDRAGON CRS-17
Epoch Orbit474
Epoch Day154.78930375
Epoch Year2019
RAAN67.8039
Inclination51.6386
Eccentricity0.0015208
Argument of Perigee3.7579
Mean Anonmoly111.5799
Mean Motion15.53549418
Decay Rate1.1E-07
L11 44222U 19025A 19154.78930375 .00000011 00000-0 76881-5 0 9990
L22 44222 51.6386 67.8039 0015208 3.7579 111.5799 15.53549418 4748

Live tracking and technical data element details for DRAGON CRS-17 (NORAD 44222). DRAGON CRS-17 can be tracked NOW for your location showing map with azimuth and elevation plus other details from your city location.

Track the satellite on the map from your city or location and see movement details for azimuth, elevation, latitude, longitude, range, height, and movement on the map or in text.







IsCatalogInMostPopularTable: catalog: 44222, numindb: 19
Update: records affected: 1



GetName: 44222 DRAGON CRS-17

Hit Count: updated at: Tue, 16 Jul 2019 20:15:22 GMT